| time (UTC) | temp C | wind direction | speed KPH | gust KPH | rain 1hr cm | rain 24hr cm | rain mn cm | humidity % | barometer mb |
| 20260506150006 | 16 | 105 | 3.2 | 9.7 | 0.00 | 0.61 | 0.03 | 53 | 1010.8 |
| 20260506144506 | 17 | 84 | 3.2 | 11.3 | 0.00 | 0.94 | 0.03 | 50 | 1010.7 |
| 20260506143006 | 17 | 84 | 3.2 | 9.7 | 0.00 | 0.97 | 0.03 | 50 | 1010.9 |
| 20260506141506 | 17 | 79 | 3.2 | 9.7 | 0.00 | 0.97 | 0.03 | 50 | 1011.1 |
| 20260506124505 | 16 | 70 | 3.2 | 16.1 | 0.00 | 0.99 | 0.03 | 61 | 1011.7 |
| 20260506121506 | 16 | 68 | 3.2 | 12.9 | 0.00 | 0.99 | 0.03 | 60 | 1011.9 |
| 20260506113009 | 14 | 75 | 1.6 | 6.4 | 0.00 | 0.99 | 0.03 | 78 | 1012.1 |
| 20260506111506 | 12 | 76 | 3.2 | 8.0 | 0.00 | 0.99 | 0.03 | 89 | 1012.1 |
| 20260506104505 | 12 | 74 | 3.2 | 9.7 | 0.00 | 0.99 | 0.03 | 89 | 1012.1 |
| 20260506103006 | 12 | 72 | 1.6 | 8.0 | 0.00 | 0.99 | 0.03 | 88 | 1012.3 |
| 20260506093006 | 10 | 80 | 1.6 | 6.4 | 0.00 | 0.99 | 0.03 | 87 | 1012.3 |
| 20260506091506 | 10 | 74 | 1.6 | 8.0 | 0.00 | 0.99 | 0.03 | 87 | 1012.3 |
| 20260506090006 | 10 | 56 | 0.0 | 4.8 | 0.00 | 0.99 | 0.03 | 87 | 1012.4 |
| 20260506084506 | 9 | 89 | 0.0 | 9.7 | 0.00 | 0.99 | 0.03 | 88 | 1012.2 |
| 20260506083006 | 8 | 0 | 0.0 | 0.0 | 0.00 | 0.99 | 0.03 | 88 | 1012.2 |
| 20260506081506 | 8 | 0 | 0.0 | 0.0 | 0.00 | 0.99 | 0.03 | 88 | 1012.1 |
| 20260506073005 | 7 | 66 | 0.0 | 4.8 | 0.00 | 0.99 | 0.03 | 89 | 1011.8 |
| 20260506071505 | 7 | 65 | 0.0 | 6.4 | 0.00 | 0.99 | 0.03 | 89 | 1011.9 |
| 20260506044505 | 6 | 0 | 0.0 | 0.0 | 0.00 | 0.99 | 0.03 | 89 | 1010.9 |
| 20260506043006 | 6 | 0 | 0.0 | 0.0 | 0.00 | 0.99 | 0.03 | 89 | 1010.9 |
| 20260506041506 | 6 | 55 | 0.0 | 6.4 | 0.00 | 0.99 | 0.03 | 89 | 1010.7 |
| 20260506034505 | 5 | 0 | 0.0 | 0.0 | 0.00 | 0.99 | 0.03 | 89 | 1010.7 |
| 20260506024505 | 6 | 0 | 0.0 | 0.0 | 0.00 | 0.99 | 0.03 | 89 | 1010.8 |
| 20260506021505 | 6 | 0 | 0.0 | 0.0 | 0.03 | 0.99 | 0.03 | 89 | 1010.8 |
| 20260506011505 | 7 | 0 | 0.0 | 0.0 | 0.00 | 0.99 | 0.00 | 89 | 1010.7 |
| 20260506010006 | 7 | 0 | 0.0 | 0.0 | 0.00 | 0.99 | 0.00 | 89 | 1010.9 |
| 20260506004505 | 7 | 0 | 0.0 | 0.0 | 0.00 | 0.99 | 0.00 | 89 | 1011.0 |
| 20260506003005 | 7 | 0 | 0.0 | 0.0 | 0.00 | 0.99 | 0.00 | 89 | 1010.9 |
| 20260506001505 | 7 | 0 | 0.0 | 0.0 | 0.00 | 0.99 | 0.00 | 89 | 1011.0 |
| 20260506000005 | 7 | 0 | 0.0 | 0.0 | 0.00 | 0.99 | 0.00 | 88 | 1011.1 |
| 20260505233005 | 6 | 0 | 0.0 | 0.0 | 0.00 | 0.99 | 0.00 | 88 | 1011.1 |
| 20260505231505 | 7 | 0 | 0.0 | 0.0 | 0.00 | 0.99 | 0.00 | 88 | 1011.1 |
| 20260505214505 | 7 | 0 | 0.0 | 0.0 | 0.25 | 0.97 | 0.97 | 88 | 1011.7 |
| 20260505213005 | 7 | 130 | 0.0 | 1.6 | 0.23 | 0.94 | 0.94 | 88 | 1011.7 |
| 20260505204505 | 7 | 0 | 0.0 | 0.0 | 0.00 | 0.71 | 0.71 | 88 | 1011.3 |
| 20260505193005 | 8 | 266 | 0.0 | 1.6 | 0.08 | 1.30 | 0.71 | 88 | 1010.3 |
| 20260505190005 | 8 | 259 | 0.0 | 4.8 | 0.15 | 1.30 | 0.71 | 88 | 1010.6 |
| 20260505174505 | 9 | 243 | 0.0 | 1.6 | 0.05 | 1.14 | 0.53 | 88 | 1010.5 |
| 20260505171505 | 10 | 261 | 3.2 | 8.0 | 0.05 | 1.14 | 0.53 | 88 | 1010.6 |
| 20260505170005 | 10 | 255 | 1.6 | 6.4 | 0.03 | 1.09 | 0.51 | 88 | 1010.7 |